| time (UTC) | temp C | wind direction | speed KPH | gust KPH | rain 1hr cm | rain 24hr cm | rain mn cm | humidity % | barometer mb |
| 20260510153755 | 22 | 221 | 8.0 | 16.1 | 0.00 | 0.00 | 0.00 | 65 | 1013.5 |
| 20260510153301 | 22 | 182 | 8.0 | 14.5 | 0.00 | 0.00 | 0.00 | 67 | 1013.6 |
| 20260510152538 | 22 | 190 | 9.7 | 14.5 | 0.00 | 0.00 | 0.00 | 66 | 1013.6 |
| 20260510152259 | 22 | 164 | 9.7 | 17.7 | 0.00 | 0.00 | 0.00 | 69 | 1013.6 |
| 20260510151804 | 22 | 201 | 9.7 | 19.3 | 0.00 | 0.00 | 0.00 | 66 | 1013.6 |
| 20260510151249 | 22 | 193 | 8.0 | 19.3 | 0.00 | 0.00 | 0.00 | 69 | 1013.5 |
| 20260510150526 | 22 | 157 | 8.0 | 17.7 | 0.00 | 0.00 | 0.00 | 70 | 1013.5 |
| 20260510150020 | 21 | 225 | 9.7 | 17.7 | 0.00 | 0.00 | 0.00 | 68 | 1013.5 |
| 20260510145521 | 21 | 223 | 9.7 | 16.1 | 0.00 | 0.00 | 0.00 | 70 | 1013.5 |
| 20260510145023 | 21 | 228 | 8.0 | 14.5 | 0.00 | 0.00 | 0.00 | 70 | 1013.4 |
| 20260510144522 | 21 | 198 | 8.0 | 14.5 | 0.00 | 0.00 | 0.00 | 69 | 1013.4 |
| 20260510144018 | 21 | 220 | 8.0 | 19.3 | 0.00 | 0.00 | 0.00 | 70 | 1013.4 |
| 20260510143520 | 21 | 213 | 9.7 | 19.3 | 0.00 | 0.00 | 0.00 | 72 | 1013.3 |
| 20260510143019 | 21 | 194 | 9.7 | 17.7 | 0.00 | 0.00 | 0.00 | 71 | 1013.3 |
| 20260510142748 | 20 | 232 | 8.0 | 16.1 | 0.00 | 0.00 | 0.00 | 70 | 1013.4 |
| 20260510142019 | 20 | 205 | 8.0 | 16.1 | 0.00 | 0.00 | 0.00 | 71 | 1013.5 |
| 20260510141519 | 20 | 197 | 8.0 | 16.1 | 0.00 | 0.00 | 0.00 | 70 | 1013.5 |
| 20260510141019 | 20 | 223 | 8.0 | 16.1 | 0.00 | 0.00 | 0.00 | 73 | 1013.4 |
| 20260510140520 | 20 | 208 | 9.7 | 16.1 | 0.00 | 0.00 | 0.00 | 74 | 1013.6 |
| 20260510140019 | 20 | 198 | 9.7 | 17.7 | 0.00 | 0.00 | 0.00 | 73 | 1013.6 |
| 20260510135519 | 20 | 193 | 8.0 | 17.7 | 0.00 | 0.00 | 0.00 | 74 | 1013.5 |
| 20260510135018 | 20 | 182 | 6.4 | 17.7 | 0.00 | 0.00 | 0.00 | 75 | 1013.5 |
| 20260510135008 | 19 | 169 | 6.4 | 17.7 | 0.00 | 0.00 | 0.00 | 76 | 1013.4 |
| 20260510134505 | 19 | 202 | 4.8 | 16.1 | 0.00 | 0.00 | 0.00 | 79 | 1013.4 |
| 20260510133520 | 18 | 114 | 3.2 | 9.7 | 0.00 | 0.00 | 0.00 | 81 | 1013.4 |
| 20260510133016 | 18 | 181 | 3.2 | 8.0 | 0.00 | 0.00 | 0.00 | 85 | 1013.3 |
| 20260510132515 | 18 | 125 | 3.2 | 9.7 | 0.00 | 0.00 | 0.00 | 84 | 1013.2 |
| 20260510132014 | 17 | 116 | 3.2 | 9.7 | 0.00 | 0.00 | 0.00 | 86 | 1013.5 |
| 20260510131516 | 17 | 174 | 1.6 | 9.7 | 0.00 | 0.00 | 0.00 | 88 | 1013.6 |
| 20260510131014 | 17 | 190 | 0.0 | 3.2 | 0.00 | 0.00 | 0.00 | 90 | 1013.5 |
| 20260510130516 | 16 | 138 | 0.0 | 3.2 | 0.00 | 0.00 | 0.00 | 91 | 1013.6 |
| 20260510130013 | 16 | 159 | 0.0 | 3.2 | 0.00 | 0.00 | 0.00 | 94 | 1013.6 |
| 20260510125514 | 16 | 213 | 0.0 | 3.2 | 0.00 | 0.00 | 0.00 | 95 | 1013.5 |
| 20260510125010 | 16 | 184 | 0.0 | 4.8 | 0.00 | 0.00 | 0.00 | 96 | 1013.5 |
| 20260510124513 | 15 | 222 | 0.0 | 4.8 | 0.00 | 0.00 | 0.00 | 97 | 1013.5 |
| 20260510124002 | 15 | 246 | 0.0 | 6.4 | 0.00 | 0.00 | 0.00 | 98 | 1013.5 |
| 20260510123455 | 14 | 224 | 0.0 | 6.4 | 0.00 | 0.00 | 0.00 | 98 | 1013.4 |
| 20260510122950 | 14 | 259 | 0.0 | 3.2 | 0.00 | 0.00 | 0.00 | 98 | 1013.4 |
| 20260510122439 | 13 | 259 | 0.0 | 3.2 | 0.00 | 0.00 | 0.00 | 98 | 1013.3 |
| 20260510122153 | 13 | 259 | 0.0 | 3.2 | 0.00 | 0.00 | 0.00 | 98 | 1013.3 |
| 20260510121427 | 13 | 259 | 0.0 | 1.6 | 0.00 | 0.00 | 0.00 | 98 | 1013.3 |
| 20260510121140 | 13 | 38 | 0.0 | 1.6 | 0.00 | 0.00 | 0.00 | 98 | 1013.2 |
| 20260510120412 | 13 | 38 | 0.0 | 1.6 | 0.00 | 0.00 | 0.00 | 98 | 1013.1 |
| 20260510115906 | 13 | 38 | 0.0 | 0.0 | 0.00 | 0.00 | 0.00 | 98 | 1013.1 |
| 20260510115355 | 12 | 38 | 0.0 | 0.0 | 0.00 | 0.00 | 0.00 | 98 | 1013.0 |
| 20260510114850 | 12 | 38 | 0.0 | 1.6 | 0.00 | 0.00 | 0.00 | 98 | 1012.9 |
| 20260510114344 | 12 | 38 | 0.0 | 1.6 | 0.00 | 0.00 | 0.00 | 98 | 1012.8 |
| 20260510113834 | 12 | 38 | 0.0 | 1.6 | 0.00 | 0.00 | 0.00 | 98 | 1012.7 |
| 20260510113327 | 12 | 38 | 0.0 | 1.6 | 0.00 | 0.00 | 0.00 | 98 | 1012.7 |
| 20260510112822 | 11 | 38 | 0.0 | 3.2 | 0.00 | 0.00 | 0.00 | 98 | 1012.7 |
| 20260510112312 | 11 | 38 | 0.0 | 3.2 | 0.00 | 0.00 | 0.00 | 98 | 1012.6 |
| 20260510111806 | 11 | 38 | 1.6 | 3.2 | 0.00 | 0.00 | 0.00 | 98 | 1012.5 |
| 20260510111259 | 11 | 38 | 1.6 | 4.8 | 0.00 | 0.00 | 0.00 | 98 | 1012.5 |
| 20260510110750 | 11 | 311 | 1.6 | 4.8 | 0.00 | 0.00 | 0.00 | 98 | 1012.3 |
| 20260510110243 | 11 | 311 | 1.6 | 6.4 | 0.00 | 0.00 | 0.00 | 98 | 1012.5 |
| 20260510105737 | 11 | 311 | 3.2 | 6.4 | 0.00 | 0.00 | 0.00 | 98 | 1012.6 |
| 20260510105227 | 10 | 293 | 1.6 | 6.4 | 0.00 | 0.00 | 0.00 | 98 | 1012.7 |
| 20260510104721 | 10 | 282 | 3.2 | 12.9 | 0.00 | 0.00 | 0.00 | 98 | 1012.6 |
| 20260510104216 | 9 | 291 | 3.2 | 12.9 | 0.00 | 0.00 | 0.00 | 98 | 1012.6 |
| 20260510103705 | 9 | 253 | 1.6 | 6.4 | 0.00 | 0.00 | 0.00 | 98 | 1012.5 |
| 20260510103159 | 10 | 34 | 1.6 | 4.8 | 0.00 | 0.00 | 0.00 | 98 | 1012.2 |
| 20260510102653 | 9 | 34 | 1.6 | 3.2 | 0.00 | 0.00 | 0.00 | 98 | 1012.1 |
| 20260510102407 | 9 | 34 | 0.0 | 1.6 | 0.00 | 0.00 | 0.00 | 98 | 1012.0 |
| 20260510101637 | 8 | 34 | 0.0 | 0.0 | 0.00 | 0.00 | 0.00 | 98 | 1012.0 |
| 20260510101354 | 8 | 34 | 0.0 | 0.0 | 0.00 | 0.00 | 0.00 | 98 | 1011.8 |
| 20260510100622 | 8 | 34 | 0.0 | 1.6 | 0.00 | 0.00 | 0.00 | 98 | 1011.9 |
| 20260510100115 | 8 | 34 | 0.0 | 4.8 | 0.00 | 0.00 | 0.00 | 98 | 1011.7 |
| 20260510095835 | 8 | 34 | 0.0 | 4.8 | 0.00 | 0.00 | 0.00 | 98 | 1011.5 |
| 20260510095059 | 8 | 95 | 0.0 | 0.0 | 0.00 | 0.00 | 0.00 | 98 | 1011.4 |
| 20260510094553 | 8 | 95 | 0.0 | 0.0 | 0.00 | 0.00 | 0.00 | 98 | 1011.6 |
| 20260510094047 | 8 | 95 | 0.0 | 0.0 | 0.00 | 0.00 | 0.00 | 97 | 1011.6 |
| 20260510093538 | 8 | 95 | 0.0 | 0.0 | 0.00 | 0.00 | 0.00 | 97 | 1011.6 |
| 20260510093031 | 9 | 84 | 0.0 | 0.0 | 0.00 | 0.00 | 0.00 | 97 | 1011.6 |
| 20260510092525 | 9 | 84 | 0.0 | 0.0 | 0.00 | 0.00 | 0.00 | 98 | 1011.5 |
| 20260510092016 | 9 | 84 | 0.0 | 0.0 | 0.00 | 0.00 | 0.00 | 97 | 1011.3 |
| 20260510091510 | 9 | 84 | 0.0 | 0.0 | 0.00 | 0.00 | 0.00 | 97 | 1011.4 |
| 20260510091013 | 9 | 84 | 0.0 | 0.0 | 0.00 | 0.00 | 0.00 | 97 | 1011.4 |
| 20260510090505 | 9 | 84 | 0.0 | 0.0 | 0.00 | 0.00 | 0.00 | 97 | 1011.4 |
| 20260510090006 | 9 | 84 | 0.0 | 0.0 | 0.00 | 0.00 | 0.00 | 97 | 1011.4 |
| 20260510085505 | 9 | 84 | 1.6 | 6.4 | 0.00 | 0.00 | 0.00 | 97 | 1011.5 |
| 20260510085005 | 10 | 84 | 1.6 | 6.4 | 0.00 | 0.00 | 0.00 | 97 | 1011.4 |
| 20260510084503 | 10 | 71 | 3.2 | 11.3 | 0.00 | 0.00 | 0.00 | 97 | 1011.4 |
| 20260510084001 | 10 | 42 | 3.2 | 11.3 | 0.00 | 0.00 | 0.00 | 98 | 1011.4 |
| 20260510083502 | 10 | 333 | 4.8 | 14.5 | 0.00 | 0.00 | 0.00 | 98 | 1011.4 |
| 20260510083005 | 10 | 240 | 6.4 | 17.7 | 0.00 | 0.00 | 0.00 | 98 | 1011.9 |
| 20260510082726 | 10 | 76 | 6.4 | 22.5 | 0.00 | 0.00 | 0.00 | 98 | 1011.2 |
| 20260510081959 | 10 | 303 | 6.4 | 22.5 | 0.00 | 0.00 | 0.00 | 98 | 1011.4 |
| 20260510081500 | 10 | 282 | 8.0 | 25.7 | 0.00 | 0.00 | 0.00 | 98 | 1011.9 |
| 20260510081000 | 9 | 263 | 9.7 | 27.4 | 0.00 | 0.00 | 0.00 | 98 | 1011.7 |
| 20260510080501 | 9 | 61 | 4.8 | 27.4 | 0.00 | 0.00 | 0.00 | 97 | 1011.0 |
| 20260510080447 | 8 | 246 | 0.0 | 3.2 | 0.00 | 0.00 | 0.00 | 97 | 1010.9 |
| 20260510075449 | 8 | 246 | 1.6 | 3.2 | 0.00 | 0.00 | 0.00 | 97 | 1010.9 |
| 20260510074945 | 8 | 246 | 0.0 | 3.2 | 0.00 | 0.00 | 0.00 | 98 | 1010.9 |
| 20260510074444 | 8 | 246 | 1.6 | 3.2 | 0.00 | 0.00 | 0.00 | 97 | 1011.1 |
| 20260510073944 | 8 | 246 | 1.6 | 4.8 | 0.00 | 0.00 | 0.00 | 98 | 1011.0 |
| 20260510073446 | 8 | 246 | 1.6 | 6.4 | 0.00 | 0.00 | 0.00 | 97 | 1011.0 |
| 20260510072944 | 8 | 263 | 1.6 | 6.4 | 0.00 | 0.00 | 0.00 | 97 | 1011.1 |
| 20260510072444 | 8 | 45 | 0.0 | 3.2 | 0.00 | 0.00 | 0.00 | 97 | 1010.9 |
| 20260510071944 | 9 | 45 | 0.0 | 3.2 | 0.00 | 0.00 | 0.00 | 97 | 1010.8 |
| 20260510071444 | 8 | 45 | 0.0 | 0.0 | 0.00 | 0.00 | 0.00 | 98 | 1010.7 |
| 20260510070944 | 8 | 45 | 0.0 | 0.0 | 0.00 | 0.00 | 0.00 | 97 | 1010.7 |
| 20260510070444 | 8 | 302 | 0.0 | 0.0 | 0.00 | 0.00 | 0.00 | 97 | 1010.7 |
| 20260510065945 | 8 | 302 | 0.0 | 0.0 | 0.00 | 0.00 | 0.00 | 97 | 1010.7 |
| 20260510065445 | 8 | 302 | 0.0 | 0.0 | 0.00 | 0.00 | 0.00 | 97 | 1010.7 |
| 20260510064940 | 8 | 302 | 0.0 | 1.6 | 0.00 | 0.00 | 0.00 | 97 | 1010.5 |
| 20260510064440 | 9 | 302 | 0.0 | 3.2 | 0.00 | 0.00 | 0.00 | 97 | 1010.5 |
| 20260510063941 | 9 | 38 | 1.6 | 3.2 | 0.00 | 0.00 | 0.00 | 97 | 1010.5 |
| 20260510063439 | 9 | 38 | 1.6 | 3.2 | 0.00 | 0.00 | 0.00 | 97 | 1010.4 |
| 20260510062941 | 9 | 73 | 1.6 | 3.2 | 0.00 | 0.00 | 0.00 | 97 | 1010.4 |
| 20260510062441 | 9 | 73 | 1.6 | 3.2 | 0.00 | 0.00 | 0.00 | 97 | 1010.4 |
| 20260510061941 | 9 | 73 | 0.0 | 3.2 | 0.00 | 0.00 | 0.00 | 97 | 1010.5 |
| 20260510061441 | 9 | 53 | 0.0 | 0.0 | 0.00 | 0.00 | 0.00 | 97 | 1010.5 |
| 20260510060940 | 9 | 53 | 0.0 | 3.2 | 0.00 | 0.00 | 0.00 | 97 | 1010.5 |
| 20260510060440 | 10 | 53 | 1.6 | 3.2 | 0.00 | 0.00 | 0.00 | 97 | 1010.5 |
| 20260510060202 | 10 | 53 | 1.6 | 3.2 | 0.00 | 0.00 | 0.00 | 97 | 1010.5 |
| 20260510055442 | 10 | 53 | 1.6 | 3.2 | 0.00 | 0.00 | 0.00 | 97 | 1010.7 |
| 20260510054944 | 10 | 53 | 3.2 | 4.8 | 0.00 | 0.00 | 0.00 | 97 | 1010.6 |
| 20260510054442 | 10 | 53 | 3.2 | 4.8 | 0.00 | 0.00 | 0.00 | 97 | 1010.6 |
| 20260510054207 | 10 | 53 | 3.2 | 4.8 | 0.00 | 0.00 | 0.00 | 97 | 1010.7 |
| 20260510053444 | 10 | 58 | 3.2 | 4.8 | 0.00 | 0.00 | 0.00 | 97 | 1010.7 |
| 20260510052933 | 10 | 61 | 3.2 | 4.8 | 0.00 | 0.00 | 0.00 | 97 | 1010.8 |
| 20260510052426 | 10 | 61 | 3.2 | 4.8 | 0.00 | 0.00 | 0.00 | 97 | 1010.8 |
| 20260510051920 | 10 | 61 | 3.2 | 4.8 | 0.00 | 0.00 | 0.00 | 97 | 1010.9 |
| 20260510051634 | 10 | 62 | 3.2 | 6.4 | 0.00 | 0.00 | 0.00 | 97 | 1011.0 |
| 20260510050905 | 10 | 67 | 4.8 | 6.4 | 0.00 | 0.00 | 0.00 | 97 | 1010.9 |
| 20260510050358 | 10 | 53 | 4.8 | 8.0 | 0.00 | 0.00 | 0.00 | 97 | 1011.0 |
| 20260510045849 | 10 | 54 | 4.8 | 8.0 | 0.00 | 0.00 | 0.00 | 97 | 1011.0 |
| 20260510045342 | 10 | 52 | 4.8 | 8.0 | 0.00 | 0.00 | 0.00 | 97 | 1011.0 |
| 20260510045102 | 10 | 46 | 4.8 | 8.0 | 0.00 | 0.00 | 0.00 | 97 | 1011.0 |
| 20260510044326 | 10 | 51 | 4.8 | 6.4 | 0.00 | 0.00 | 0.00 | 97 | 1010.9 |
| 20260510043820 | 10 | 46 | 4.8 | 6.4 | 0.00 | 0.00 | 0.00 | 97 | 1011.0 |
| 20260510043315 | 10 | 47 | 4.8 | 6.4 | 0.00 | 0.00 | 0.00 | 97 | 1011.0 |
| 20260510042804 | 10 | 55 | 4.8 | 6.4 | 0.00 | 0.00 | 0.00 | 97 | 1011.0 |
| 20260510042259 | 9 | 44 | 3.2 | 6.4 | 0.00 | 0.00 | 0.00 | 97 | 1011.0 |
| 20260510041751 | 9 | 40 | 3.2 | 6.4 | 0.00 | 0.00 | 0.00 | 97 | 1011.1 |
| 20260510041240 | 9 | 48 | 3.2 | 4.8 | 0.00 | 0.00 | 0.00 | 96 | 1011.2 |
| 20260510040735 | 9 | 46 | 3.2 | 4.8 | 0.00 | 0.00 | 0.00 | 96 | 1011.1 |
| 20260510040230 | 9 | 46 | 1.6 | 3.2 | 0.00 | 0.00 | 0.00 | 97 | 1011.1 |
| 20260510035719 | 9 | 46 | 1.6 | 3.2 | 0.00 | 0.00 | 0.00 | 96 | 1011.1 |
| 20260510035213 | 9 | 46 | 1.6 | 3.2 | 0.00 | 0.00 | 0.00 | 96 | 1011.2 |
| 20260510034707 | 9 | 46 | 0.0 | 3.2 | 0.00 | 0.00 | 0.00 | 96 | 1011.2 |
| 20260510034427 | 9 | 46 | 0.0 | 1.6 | 0.00 | 0.00 | 0.00 | 96 | 1011.2 |
| 20260510033651 | 9 | 46 | 0.0 | 3.2 | 0.00 | 0.00 | 0.00 | 96 | 1011.1 |
| 20260510033145 | 9 | 46 | 1.6 | 3.2 | 0.00 | 0.00 | 0.00 | 96 | 1011.2 |
| 20260510032854 | 10 | 46 | 1.6 | 3.2 | 0.00 | 0.00 | 0.00 | 96 | 1011.1 |
| 20260510032129 | 10 | 46 | 1.6 | 3.2 | 0.00 | 0.00 | 0.00 | 96 | 1011.1 |
| 20260510031624 | 10 | 46 | 1.6 | 3.2 | 0.00 | 0.00 | 0.00 | 96 | 1011.0 |
| 20260510031558 | 10 | 46 | 0.0 | 3.2 | 0.00 | 0.00 | 0.00 | 96 | 1011.0 |
| 20260510030608 | 10 | 46 | 0.0 | 0.0 | 0.00 | 0.00 | 0.00 | 96 | 1011.1 |
| 20260510030100 | 10 | 46 | 0.0 | 3.2 | 0.00 | 0.00 | 0.00 | 95 | 1010.9 |
| 20260510025549 | 10 | 46 | 0.0 | 3.2 | 0.00 | 0.00 | 0.00 | 96 | 1010.8 |
| 20260510025043 | 10 | 46 | 1.6 | 3.2 | 0.00 | 0.00 | 0.00 | 95 | 1010.7 |
| 20260510024537 | 10 | 46 | 1.6 | 3.2 | 0.00 | 0.00 | 0.00 | 96 | 1010.7 |
| 20260510024254 | 10 | 46 | 3.2 | 4.8 | 0.00 | 0.00 | 0.00 | 96 | 1010.7 |
| 20260510023745 | 10 | 46 | 3.2 | 4.8 | 0.00 | 0.00 | 0.00 | 95 | 1010.6 |
| 20260510023016 | 10 | 46 | 3.2 | 4.8 | 0.00 | 0.00 | 0.00 | 95 | 1010.7 |
| 20260510022505 | 10 | 46 | 1.6 | 3.2 | 0.00 | 0.00 | 0.00 | 95 | 1010.7 |
| 20260510022000 | 10 | 46 | 1.6 | 3.2 | 0.00 | 0.00 | 0.00 | 95 | 1010.9 |
| 20260510021454 | 10 | 46 | 1.6 | 3.2 | 0.00 | 0.00 | 0.00 | 95 | 1010.8 |
| 20260510020944 | 11 | 46 | 3.2 | 4.8 | 0.00 | 0.00 | 0.00 | 95 | 1010.9 |
| 20260510020437 | 11 | 46 | 3.2 | 4.8 | 0.00 | 0.00 | 0.00 | 95 | 1010.8 |
| 20260510015931 | 11 | 46 | 3.2 | 6.4 | 0.00 | 0.00 | 0.00 | 95 | 1010.7 |
| 20260510015421 | 11 | 52 | 3.2 | 6.4 | 0.00 | 0.00 | 0.00 | 95 | 1010.7 |
| 20260510015135 | 11 | 42 | 3.2 | 6.4 | 0.00 | 0.00 | 0.00 | 95 | 1010.6 |
| 20260510014409 | 11 | 54 | 3.2 | 6.4 | 0.00 | 0.00 | 0.00 | 95 | 1010.6 |
| 20260510013859 | 11 | 65 | 4.8 | 6.4 | 0.00 | 0.00 | 0.00 | 95 | 1010.5 |
| 20260510013353 | 11 | 45 | 4.8 | 8.0 | 0.00 | 0.00 | 0.00 | 94 | 1010.5 |
| 20260510012848 | 11 | 46 | 4.8 | 8.0 | 0.00 | 0.00 | 0.00 | 94 | 1010.5 |
| 20260510012338 | 11 | 56 | 3.2 | 6.4 | 0.00 | 0.00 | 0.00 | 94 | 1010.4 |
| 20260510011831 | 11 | 45 | 3.2 | 6.4 | 0.00 | 0.00 | 0.00 | 94 | 1010.4 |
| 20260510011325 | 11 | 45 | 3.2 | 6.4 | 0.00 | 0.00 | 0.00 | 93 | 1010.5 |
| 20260510010815 | 11 | 45 | 3.2 | 6.4 | 0.00 | 0.00 | 0.00 | 93 | 1010.4 |
| 20260510010309 | 11 | 59 | 3.2 | 6.4 | 0.00 | 0.00 | 0.00 | 93 | 1010.3 |
| 20260510005802 | 11 | 32 | 3.2 | 4.8 | 0.00 | 0.00 | 0.00 | 93 | 1010.2 |
| 20260510005257 | 12 | 47 | 3.2 | 6.4 | 0.00 | 0.00 | 0.00 | 93 | 1010.1 |
| 20260510004756 | 12 | 49 | 3.2 | 6.4 | 0.00 | 0.00 | 0.00 | 92 | 1010.1 |
| 20260510004256 | 12 | 47 | 3.2 | 8.0 | 0.00 | 0.00 | 0.00 | 92 | 1010.1 |
| 20260510003756 | 12 | 48 | 3.2 | 8.0 | 0.00 | 0.00 | 0.00 | 92 | 1010.2 |
| 20260510003258 | 12 | 65 | 3.2 | 8.0 | 0.00 | 0.00 | 0.00 | 92 | 1010.1 |
| 20260510002757 | 12 | 67 | 3.2 | 8.0 | 0.00 | 0.00 | 0.00 | 91 | 1010.1 |
| 20260510002255 | 12 | 69 | 3.2 | 6.4 | 0.00 | 0.00 | 0.00 | 91 | 1010.1 |
| 20260510002013 | 12 | 56 | 3.2 | 6.4 | 0.00 | 0.00 | 0.00 | 90 | 1010.1 |
| 20260510001257 | 12 | 49 | 1.6 | 6.4 | 0.00 | 0.00 | 0.00 | 89 | 1010.0 |
| 20260510000759 | 12 | 65 | 0.0 | 4.8 | 0.00 | 0.00 | 0.00 | 89 | 1010.1 |
| 20260510000258 | 13 | 44 | 0.0 | 4.8 | 0.00 | 0.00 | 0.00 | 89 | 1010.1 |
| 20260509235757 | 13 | 69 | 1.6 | 6.4 | 0.00 | 0.00 | 0.00 | 88 | 1010.1 |
| 20260509235257 | 13 | 58 | 1.6 | 9.7 | 0.00 | 0.00 | 0.00 | 88 | 1009.9 |
| 20260509234751 | 13 | 68 | 1.6 | 9.7 | 0.00 | 0.00 | 0.00 | 87 | 1010.1 |
| 20260509234247 | 13 | 70 | 1.6 | 6.4 | 0.00 | 0.00 | 0.00 | 87 | 1010.2 |
| 20260509233748 | 14 | 56 | 3.2 | 8.0 | 0.00 | 0.00 | 0.00 | 87 | 1010.1 |
| 20260509233742 | 14 | 50 | 4.8 | 11.3 | 0.00 | 0.00 | 0.00 | 86 | 1010.1 |
| 20260509232747 | 14 | 60 | 4.8 | 11.3 | 0.00 | 0.00 | 0.00 | 85 | 1010.0 |
| 20260509232508 | 15 | 49 | 3.2 | 9.7 | 0.00 | 0.00 | 0.00 | 85 | 1010.1 |
| 20260509231748 | 15 | 34 | 4.8 | 8.0 | 0.00 | 0.00 | 0.00 | 84 | 1010.0 |
| 20260509231248 | 15 | 43 | 4.8 | 8.0 | 0.00 | 0.00 | 0.00 | 83 | 1010.1 |
| 20260509230748 | 15 | 42 | 3.2 | 8.0 | 0.00 | 0.00 | 0.00 | 83 | 1010.0 |
| 20260509230248 | 15 | 32 | 4.8 | 9.7 | 0.00 | 0.00 | 0.00 | 83 | 1009.9 |
| 20260509225748 | 15 | 48 | 4.8 | 9.7 | 0.00 | 0.00 | 0.00 | 82 | 1009.9 |
| 20260509225247 | 15 | 32 | 4.8 | 9.7 | 0.00 | 0.00 | 0.00 | 82 | 1009.8 |
| 20260509225007 | 15 | 53 | 3.2 | 9.7 | 0.00 | 0.00 | 0.00 | 82 | 1009.8 |
| 20260509224248 | 15 | 49 | 3.2 | 9.7 | 0.00 | 0.00 | 0.00 | 83 | 1009.8 |
| 20260509223748 | 15 | 57 | 3.2 | 8.0 | 0.00 | 0.00 | 0.00 | 83 | 1009.8 |
| 20260509223248 | 15 | 66 | 3.2 | 8.0 | 0.00 | 0.00 | 0.00 | 83 | 1009.9 |
| 20260509222748 | 15 | 46 | 1.6 | 6.4 | 0.00 | 0.00 | 0.00 | 84 | 1010.0 |
| 20260509222248 | 15 | 22 | 1.6 | 6.4 | 0.00 | 0.00 | 0.00 | 85 | 1010.0 |
| 20260509221747 | 15 | 62 | 3.2 | 6.4 | 0.00 | 0.00 | 0.00 | 84 | 1010.0 |
| 20260509221247 | 15 | 69 | 1.6 | 6.4 | 0.00 | 0.00 | 0.00 | 84 | 1010.0 |
| 20260509221016 | 15 | 83 | 0.0 | 4.8 | 0.00 | 0.00 | 0.00 | 84 | 1010.1 |
| 20260509220249 | 15 | 14 | 0.0 | 6.4 | 0.00 | 0.00 | 0.00 | 85 | 1010.1 |
| 20260509215748 | 15 | 5 | 1.6 | 6.4 | 0.00 | 0.00 | 0.00 | 85 | 1010.1 |
| 20260509215247 | 15 | 17 | 1.6 | 6.4 | 0.00 | 0.00 | 0.00 | 85 | 1010.1 |
| 20260509214749 | 15 | 28 | 1.6 | 6.4 | 0.00 | 0.00 | 0.00 | 86 | 1009.9 |
| 20260509214248 | 15 | 5 | 1.6 | 6.4 | 0.00 | 0.00 | 0.00 | 86 | 1009.9 |
| 20260509213749 | 15 | 46 | 1.6 | 6.4 | 0.00 | 0.00 | 0.00 | 86 | 1010.1 |
| 20260509213250 | 15 | 27 | 1.6 | 6.4 | 0.00 | 0.00 | 0.00 | 86 | 1010.1 |
| 20260509212745 | 15 | 288 | 3.2 | 6.4 | 0.00 | 0.00 | 0.00 | 87 | 1010.1 |
| 20260509212237 | 14 | 0 | 1.6 | 6.4 | 0.00 | 0.00 | 0.00 | 86 | 1009.9 |
| 20260509211725 | 14 | 20 | 1.6 | 6.4 | 0.00 | 0.00 | 0.00 | 86 | 1009.9 |
| 20260509211219 | 14 | 0 | 1.6 | 6.4 | 0.00 | 0.00 | 0.00 | 85 | 1009.9 |
| 20260509210713 | 14 | 5 | 1.6 | 6.4 | 0.00 | 0.00 | 0.00 | 84 | 1009.9 |
| 20260509210425 | 14 | 325 | 1.6 | 6.4 | 0.00 | 0.00 | 0.00 | 84 | 1009.9 |
| 20260509205916 | 15 | 307 | 3.2 | 8.0 | 0.00 | 0.00 | 0.00 | 83 | 1010.2 |
| 20260509205150 | 15 | 300 | 3.2 | 9.7 | 0.00 | 0.00 | 0.00 | 84 | 1010.1 |
| 20260509204641 | 15 | 288 | 4.8 | 11.3 | 0.00 | 0.00 | 0.00 | 84 | 1010.2 |
| 20260509204134 | 15 | 240 | 4.8 | 11.3 | 0.00 | 0.00 | 0.00 | 84 | 1010.1 |
| 20260509203628 | 15 | 255 | 1.6 | 6.4 | 0.00 | 0.00 | 0.00 | 84 | 1010.2 |
| 20260509203342 | 15 | 0 | 0.0 | 3.2 | 0.00 | 0.00 | 0.00 | 84 | 1010.1 |
| 20260509202612 | 15 | 30 | 0.0 | 3.2 | 0.00 | 0.00 | 0.00 | 83 | 1010.1 |
| 20260509202106 | 15 | 32 | 0.0 | 4.8 | 0.00 | 0.00 | 0.00 | 83 | 1010.1 |
| 20260509201814 | 15 | 328 | 1.6 | 4.8 | 0.00 | 0.00 | 0.00 | 83 | 1010.1 |
| 20260509201051 | 15 | 11 | 1.6 | 9.7 | 0.00 | 0.00 | 0.00 | 82 | 1010.2 |
| 20260509200544 | 15 | 281 | 3.2 | 9.7 | 0.00 | 0.00 | 0.00 | 80 | 1010.2 |
| 20260509200254 | 15 | 288 | 3.2 | 8.0 | 0.00 | 0.00 | 0.00 | 80 | 1010.1 |
| 20260509195755 | 16 | 246 | 3.2 | 8.0 | 0.00 | 0.00 | 0.00 | 82 | 1010.0 |
| 20260509195022 | 15 | 294 | 4.8 | 9.7 | 0.00 | 0.00 | 0.00 | 80 | 1010.0 |
| 20260509194512 | 15 | 306 | 4.8 | 9.7 | 0.00 | 0.00 | 0.00 | 81 | 1010.0 |
| 20260509194006 | 15 | 313 | 6.4 | 12.9 | 0.00 | 0.00 | 0.00 | 83 | 1009.9 |
| 20260509193500 | 15 | 242 | 6.4 | 12.9 | 0.00 | 0.00 | 0.00 | 84 | 1010.1 |
| 20260509193214 | 15 | 269 | 6.4 | 14.5 | 0.00 | 0.00 | 0.00 | 86 | 1010.2 |
| 20260509192444 | 15 | 257 | 6.4 | 14.5 | 0.00 | 0.00 | 0.00 | 87 | 1010.3 |
| 20260509191939 | 14 | 289 | 6.4 | 12.9 | 0.00 | 0.00 | 0.00 | 86 | 1010.4 |
| 20260509191428 | 14 | 291 | 6.4 | 14.5 | 0.00 | 0.00 | 0.00 | 85 | 1010.5 |
| 20260509190923 | 14 | 248 | 6.4 | 17.7 | 0.00 | 0.00 | 0.00 | 85 | 1010.7 |
| 20260509190417 | 14 | 271 | 8.0 | 17.7 | 0.00 | 0.00 | 0.00 | 85 | 1010.8 |
| 20260509185906 | 14 | 267 | 4.8 | 14.5 | 0.00 | 0.00 | 0.00 | 86 | 1010.8 |
| 20260509185401 | 14 | 313 | 3.2 | 9.7 | 0.00 | 0.00 | 0.00 | 87 | 1011.0 |
| 20260509184853 | 13 | 303 | 4.8 | 17.7 | 0.00 | 0.00 | 0.00 | 86 | 1011.0 |
| 20260509184602 | 13 | 236 | 8.0 | 17.7 | 0.00 | 0.00 | 0.00 | 86 | 1011.1 |
| 20260509183841 | 13 | 263 | 8.0 | 17.7 | 0.00 | 0.00 | 0.00 | 85 | 1011.3 |
| 20260509183343 | 13 | 265 | 8.0 | 17.7 | 0.00 | 0.00 | 0.00 | 83 | 1011.3 |
| 20260509182844 | 13 | 260 | 6.4 | 16.1 | 0.00 | 0.00 | 0.00 | 82 | 1011.3 |
| 20260509182344 | 13 | 224 | 9.7 | 19.3 | 0.00 | 0.00 | 0.00 | 81 | 1011.4 |
| 20260509181848 | 13 | 275 | 9.7 | 19.3 | 0.00 | 0.00 | 0.00 | 80 | 1011.3 |
| 20260509181339 | 14 | 264 | 8.0 | 16.1 | 0.00 | 0.00 | 0.00 | 80 | 1011.3 |
| 20260509180839 | 14 | 281 | 11.3 | 19.3 | 0.00 | 0.00 | 0.00 | 80 | 1011.4 |
| 20260509180339 | 14 | 285 | 9.7 | 19.3 | 0.00 | 0.00 | 0.00 | 80 | 1011.4 |
| 20260509175840 | 14 | 284 | 8.0 | 17.7 | 0.00 | 0.00 | 0.00 | 80 | 1011.5 |
| 20260509175339 | 14 | 257 | 9.7 | 16.1 | 0.00 | 0.00 | 0.00 | 81 | 1011.4 |
| 20260509174839 | 14 | 267 | 9.7 | 17.7 | 0.00 | 0.00 | 0.00 | 82 | 1011.4 |
| 20260509174339 | 14 | 305 | 8.0 | 17.7 | 0.00 | 0.00 | 0.00 | 82 | 1011.4 |
| 20260509174328 | 14 | 269 | 6.4 | 14.5 | 0.00 | 0.00 | 0.00 | 84 | 1011.4 |
| 20260509173340 | 14 | 262 | 6.4 | 14.5 | 0.00 | 0.00 | 0.00 | 84 | 1011.4 |
| 20260509172830 | 14 | 245 | 8.0 | 16.1 | 0.00 | 0.00 | 0.00 | 84 | 1011.4 |
| 20260509172331 | 14 | 252 | 8.0 | 16.1 | 0.00 | 0.00 | 0.00 | 84 | 1011.5 |
| 20260509171830 | 14 | 259 | 6.4 | 16.1 | 0.00 | 0.00 | 0.00 | 84 | 1011.5 |
| 20260509171547 | 14 | 225 | 6.4 | 16.1 | 0.00 | 0.00 | 0.00 | 84 | 1011.6 |
| 20260509170829 | 15 | 271 | 6.4 | 12.9 | 0.00 | 0.00 | 0.00 | 82 | 1011.6 |
| 20260509170328 | 15 | 232 | 4.8 | 11.3 | 0.00 | 0.00 | 0.00 | 80 | 1011.6 |
| 20260509165830 | 15 | 242 | 3.2 | 6.4 | 0.00 | 0.00 | 0.00 | 79 | 1011.4 |
| 20260509165327 | 15 | 237 | 3.2 | 6.4 | 0.00 | 0.00 | 0.00 | 80 | 1011.4 |
| 20260509164827 | 15 | 237 | 3.2 | 6.4 | 0.00 | 0.00 | 0.00 | 80 | 1011.4 |
| 20260509164329 | 15 | 232 | 3.2 | 6.4 | 0.00 | 0.00 | 0.00 | 79 | 1011.4 |
| 20260509163825 | 15 | 234 | 0.0 | 6.4 | 0.00 | 0.00 | 0.00 | 79 | 1011.4 |
| 20260509163550 | 15 | 226 | 0.0 | 0.0 | 0.00 | 0.00 | 0.00 | 79 | 1011.4 |
| 20260509162826 | 15 | 273 | 0.0 | 0.0 | 0.00 | 0.00 | 0.00 | 78 | 1011.4 |
| 20260509162323 | 15 | 273 | 0.0 | 0.0 | 0.00 | 0.00 | 0.00 | 77 | 1011.4 |
| 20260509161820 | 15 | 279 | 0.0 | 0.0 | 0.00 | 0.00 | 0.00 | 76 | 1011.3 |
| 20260509161542 | 15 | 279 | 0.0 | 0.0 | 0.00 | 0.00 | 0.00 | 76 | 1011.4 |
| 20260509160820 | 15 | 279 | 0.0 | 1.6 | 0.00 | 0.00 | 0.00 | 76 | 1011.4 |
| 20260509160316 | 15 | 279 | 1.6 | 4.8 | 0.00 | 0.00 | 0.00 | 76 | 1011.4 |
| 20260509155815 | 15 | 192 | 3.2 | 11.3 | 0.00 | 0.00 | 0.00 | 76 | 1011.6 |
| 20260509155316 | 15 | 248 | 4.8 | 11.3 | 0.00 | 0.00 | 0.00 | 79 | 1011.8 |
| 20260509154816 | 15 | 227 | 3.2 | 9.7 | 0.00 | 0.00 | 0.00 | 80 | 1011.8 |
| 20260509154314 | 15 | 180 | 1.6 | 6.4 | 0.00 | 0.00 | 0.00 | 81 | 1012.1 |